sat.trackr.live / text

‹ back to catalog

TORO

NORAD 60530 · 2024-149BQ

PAYLOAD ACTIVE UNKNOWN

§ Identity

Operator
Country
ROC
Launch date
2024-08-16
Launch site
AFWTR
Launch vehicle
Mass (kg)
RCS (m²)

External: N2YO · Heavens-Above · Gunter

§ Orbital elements

Epoch: 2026-05-24T23:15:34.604064Z

Period
96.24 min
Inclination
97.6794°
Eccentricity
0.0001930
Mean motion
14.96326445 rev/d
Perigee alt
576.9 km
Apogee alt
579.6 km
Semi-major
6,956.4 km
B*
1.5679e-4
RAAN
220.0714°
Arg perigee
87.9879°
Mean anomaly
272.1563°
Rev number
9,648

§ Raw data

TORO1 60530U 24149BQ  26144.96915051  .00001716  00000+0  15679-3 0  99922 60530  97.6794 220.0714 0001930  87.9879 272.1563 14.96326445 96482

JSON: /api/v1/satellites/60530 · /tle

For live sub-satellite position, see the globe view (requires WebGL).

§ Visibility from observer

Set your observer location to see the next 7 days of passes ≥ 10°. The values pass through the URL so the page stays shareable.

No JS? Fill the form by hand. The geolocation button needs JavaScript.

§ Radio — SatNOGS DB

ModeDescriptionDownlinkUplink
GMSK UHF 9k6 Telemetry 435.410 MHz

1 transmitter · refreshed weekly from db.satnogs.org